Regional Weather Roundup
Issued by NWS Sioux Falls, SD

Home | Current Version | Previous Version | Graphics & Text | Print | Product List | Glossary On
Versions: 1 2 3 4 5 6 7 8 9 10 11 12 13 14 15 16 17 18 19 20 21 22 23 24 25 26 27 28 29 30 31 32 33 34 35 36 37 38 39 40 41 42 43 44 45 46 47 48 49 50
000
ASUS43 KFSD 290510
RWRFSD

WEATHER ROUNDUP FOR SE SOUTH DAKOTA/SW MINNESOTA/NW IOWA
NATIONAL WEATHER SERVICE SIOUX FALLS SD
1200 AM CDT SUN MAR 29 2015

NOTE: "FAIR" INDICATES FEW OR NO CLOUDS BELOW 12,000 FEET WITH NO
SIGNIFICANT WEATHER AND OR OBSTRUCTIONS TO VISIBILITY.


SDZ038>040-050-052>070-290600-
SOUTHEAST SOUTH DAKOTA

CITY           SKY/WX    TMP DP  RH WIND       PRES   REMARKS
CHAMBERLAIN    CLOUDY    58  36  42 S23G37    29.58F
HURON          PTCLDY    47  33  58 S30G41    29.60F
MADISON        FAIR      41  32  70 S24G31    29.71F
MITCHELL       PTCLDY    47  34  60 S22G30    29.67F
SIOUX FALLS    CLEAR     43  30  60 S22G30    29.75F
WINNER         FAIR      65  39  38 NW32G46   29.66R
YANKTON        CLEAR     46  32  57 S23G32    29.74F
$$

MNZ071-072-080-081-089-090-097-098-290600-
SOUTHWEST MINNESOTA

CITY           SKY/WX    TMP DP  RH WIND       PRES   REMARKS
FAIRMONT       CLEAR     36  21  55 S21       29.88F
JACKSON        CLEAR     37  28  70 S26G32    29.86F
LUVERNE        CLEAR     41  30  65 S16G26    29.80F
MARSHALL       CLEAR    N/A N/A N/A S26G35    29.75F
MONTEVIDEO     PTCLDY    39  30  70 S14       29.76F
PIPESTONE      CLEAR     39  28  65 S24G31    29.74F
REDWOOD FALLS  CLEAR     38  28  67 S18       29.81F
TRACY          CLEAR     40  29  65 S22G30    29.75F
WINDOM         CLEAR     39  28  65 S22G33    29.83F
WORTHINGTON    CLEAR     37  27  65 S21G31    29.83F
$$

IAZ001>003-012>014-020>022-031-032-NEZ013-014-SDZ071-290600-
NORTHWEST IOWA

CITY           SKY/WX    TMP DP  RH WIND       PRES   REMARKS
CHEROKEE       CLEAR     37  30  74 S16G22    29.88F
DENISON        CLEAR     39  30  70 S18G28    29.92F
ESTHERVILLE    CLEAR     37  26  64 S29G37    29.89F
LE MARS        CLEAR     43  32  65 S20G25    29.83F
ORANGE CITY    CLEAR     41  30  65 S16G24    29.83F
SHELDON        PTCLDY    37  30  75 S22G28    29.84F
SIOUX CITY     CLEAR     43  31  62 SE16      29.86F
SPENCER        CLEAR     38  28  67 S23G30    29.88F
STORM LAKE     CLEAR     36  28  75 S23G30    29.90F
$$

ABBREVIATIONS USED IN REMARKS
   TC - TEMPERATURE IN CELSIUS
  WCI - WIND CHILL INDEX
   HX - HEAT INDEX
  VSB - VISIBILITY



USA.gov is the U.S. government's official web portal to all federal, state and local government web resources and services.